User: anonymous   Login
Location: Caltech
(34.1382°N, 118.1253°W)
Time: 18:55:34
(UTC-07:00)
Language:

Cosmos 1025 Rocket - Orbit

View from above orbital plane
View from above orbital plane
View from above satellite
View from above satellite

Ground track
Ground track

The orbit data is extracted from the following two-line orbital elements,

1 10974U 78067B   15084.94119312  .00000779  00000-0  84270-4 0  9995
2 10974 082.4829 220.2017 0018151 156.9643 203.2392 14.86912676986554
Epoch (UTC): 25 March 2015 22:35:19
Eccentricity: 0.0018151
inclination: 82.4829°
perigee height: 595 km
apogee height: 620 km
right ascension of ascending node: 220.2017°
argument of perigee: 156.9643°
revolutions per day: 14.86912676
mean anomaly at epoch: 203.2392°
orbit number at epoch: 98655

The dashed part of the orbit path shows where the satellite is in the earth's shadow,  

DLR